Location: Recife
(8.0585°S, 34.8848°W)
Time: 15:45:16
(UTC-03:00)

Transit 2A - Pass Details

Date: 20 April 2026
Orbit: 594 x 950 km, 66.7° (Epoch: 12 May)

Event Time Altitude Azimuth Distance (km) Brightness Sun altitude
Rises 18:35:25 0° 188° (S) 3,421 9.3 -20.4°
Reaches altitude 10° 18:37:58 10° 181° (S) 2,530 8.6 -21.0°
Enters shadow 18:42:56 41° 126° (SE) 1,297 6.7 -22.2°
